"2016-01-17 00:00:00",1291611,1.925,58.99,6.731,1.282,2.639,99.55857,-1.825,-0.532,30.57,0,109.6,13.35,-1.08,21.0
"2016-01-17 00:00:30",1291612,2.415,60.46,7.498,1.351,3.671,99.5515,-1.843,-0.515,30.65,0,109.6,13.35,-1.10,22.5
"2016-01-17 00:01:00",1291613,1.745,52.09,6.011,1.246,2.225,99.543,-1.864,-0.614,30.62,0,109.6,13.35,-1.12,14.1
"2016-01-17 00:01:30",1291614,1.069,46.26,0.934,0.017,0.5,99.53196,-1.893,-0.703,30.61,0,109.6,13.39,-1.15,8.3
"2016-01-17 00:02:00",1291615,2.537,54.42,6.704,1.358,3.381,99.5311,-1.895,-0.556,30.8,0,109.6,13.35,-1.15,16.4
"2016-01-17 00:02:30",1291616,2.513,54.46,7.744,1.339,2.987,99.52966,-1.898,-0.571,30.78,0,109.6,13.36,-1.15,16.5
"2016-01-17 00:03:00",1291617,2.304,53.18,5.892,1.279,2.634,99.52341,-1.914,-0.668,30.74,0,109.6,13.36,-1.17,15.2
"2016-01-17 00:03:30",1291618,2.401,51.93,7.178,1.365,2.984,99.51208,-1.943,-0.592,30.94,0,109.6,13.36,-1.20,13.9
"2016-01-17 00:04:00",1291619,2.193,47.63,7.344,1.338,2.582,99.50755,-1.955,-0.704,30.96,0,109.6,13.36,-1.21,9.6
"2016-01-17 00:04:30",1291620,1.097,45.36,2.848,0.057,0.766,99.50642,-1.958,-0.802,30.97,0,109.6,13.41,-1.21,7.4
"2016-01-17 00:05:00",1291621,2.285,54.83,8.26,1.341,2.88,99.49621,-1.984,-0.685,31.09,0,109.6,13.36,-1.24,16.8
"2016-01-17 00:05:30",1291622,2.599,62.13,6.659,1.355,3.572,99.4911,-1.997,-0.71,31.16,0,109.6,13.37,-1.25,24.1
"2016-01-17 00:06:00",1291623,1.975,59.92,7.252,1.233,2.873,99.4826,-2.018,-0.699,31.22,0,109.6,13.37,-1.27,21.9
"2016-01-17 00:06:30",1291624,2.287,65.66,6.663,1.378,3.047,99.48316,-2.017,-0.822,31.12,0,109.6,13.37,-1.27,27.7
"2016-01-17 00:07:00",1291625,2.488,67.28,7.32,1.394,3.997,99.47665,-2.034,-0.765,31.21,0,109.6,13.37,-1.29,29.3
"2016-01-17 00:07:30",1291626,1.091,59.4,3.733,0.497,1.57,99.46871,-2.054,-0.871,31.17,0,109.6,13.37,-1.31,21.4
"2016-01-17 00:08:00",1291627,1.657,65.45,5.808,1.182,2.234,99.45993,-2.076,-0.905,31.21,0,109.6,13.37,-1.33,27.4
"2016-01-17 00:08:30",1291628,2.26,68.82,6.791,1.301,3.181,99.45539,-2.088,-0.78,31.46,0,109.6,13.37,-1.34,30.8
"2016-01-17 00:09:00",1291629,2.456,64.52,7.317,1.373,2.975,99.45652,-2.085,-0.867,31.39,0,109.6,13.37,-1.34,26.5
"2016-01-17 00:09:30",1291630,2.524,61.82,7.212,1.3,3.221,99.45623,-2.086,-0.809,31.49,0,109.6,13.37,-1.34,23.8
"2016-01-17 00:10:00",1291631,2.39,57.61,7.504,1.356,3.049,99.44746,-2.108,-0.857,31.43,0,109.6,13.37,-1.36,19.6
"2016-01-17 00:10:30",1291632,1.878,54.06,6.589,1.249,2.197,99.43982,-2.127,-0.873,31.47,0,109.6,13.37,-1.38,16.1
"2016-01-17 00:11:00",1291633,0.995,47.21,1.937,0.037,0.776,99.43416,-2.142,-0.975,31.37,0,109.6,13.42,-1.40,9.2
"2016-01-17 00:11:30",1291634,2.237,49.84,6.432,1.316,3.147,99.42312,-2.17,-0.921,31.51,0,109.6,13.37,-1.43,11.8
"2016-01-17 00:12:00",1291635,2.487,51.6,7.148,1.333,4.062,99.42255,-2.171,-0.839,31.68,0,109.6,13.37,-1.43,13.6
"2016-01-17 00:12:30",1291636,1.817,48.51,6.978,1.229,2.537,99.42255,-2.171,-0.954,31.64,0,109.6,13.37,-1.43,10.5
"2016-01-17 00:13:00",1291637,2.173,49.75,7.026,1.351,3.611,99.4183,-2.182,-0.919,31.7,0,109.6,13.37,-1.44,11.8
"2016-01-17 00:13:30",1291638,1.904,52.07,6.596,1.316,2.459,99.40811,-2.208,-0.973,31.61,0,109.6,13.37,-1.46,14.1
"2016-01-17 00:14:00",1291639,1.729,58.17,5.385,1.151,2.439,99.40528,-2.215,-1.016,31.53,0,109.6,13.37,-1.47,20.2
"2016-01-17 00:14:30",1291640,1.847,64.78,6.086,1.142,2.215,99.39595,-2.239,-1.013,31.44,0,109.6,13.37,-1.50,26.8
"2016-01-17 00:15:00",1291641,2.455,66.05,8.4,1.339,3.56,99.38887,-2.257,-0.937,31.49,0,109.5,13.37,-1.51,28.1
"2016-01-17 00:15:30",1291642,2.67,56.35,8.1,1.366,3.37,99.38914,-2.256,-0.96,31.48,0,109.5,13.37,-1.51,18.3
"2016-01-17 00:16:00",1291643,2.449,50.07,7.144,1.378,3.864,99.38858,-2.258,-0.974,31.56,0,109.5,13.37,-1.51,12.1
"2016-01-17 00:16:30",1291644,2.112,46.08,6.837,1.336,2.722,99.38914,-2.257,-1.046,31.48,0,109.6,13.37,-1.51,8.1
"2016-01-17 00:17:00",1291645,1.754,43.16,6.257,1.157,2.065,99.38376,-2.27,-1.044,31.4,0,109.6,13.37,-1.53,5.2
"2016-01-17 00:17:30",1291646,1.04,41.32,1.827,0.07,0.724,99.3792,-2.282,-1.161,31.25,0,109.6,13.42,-1.54,3.3
"2016-01-17 00:18:00",1291647,2.672,53.13,6.758,1.351,3.148,99.37862,-2.283,-1.045,31.39,0,109.6,13.37,-1.54,15.1
"2016-01-17 00:18:30",1291648,2.55,54.98,7.762,1.372,3.388,99.37322,-2.297,-0.973,31.49,0,109.6,13.37,-1.55,17.0
"2016-01-17 00:19:00",1291649,2.108,59.54,7.62,1.239,3.171,99.3684,-2.309,-0.999,31.46,0,109.6,13.38,-1.57,21.5
"2016-01-17 00:19:30",1291650,2.872,63.05,6.285,1.33,3.907,99.37122,-2.302,-1.022,31.44,0,109.6,13.38,-1.56,25.0
"2016-01-17 00:20:00",1291651,2.339,59.05,6.879,1.237,2.571,99.37093,-2.303,-1.103,31.29,0,109.5,13.38,-1.56,21.0
"2016-01-17 00:20:30",1291652,1.474,47.26,2.918,0.09,0.975,99.37093,-2.303,-1.219,31.12,0,109.5,13.42,-1.56,9.3
"2016-01-17 00:21:00",1291653,2.519,52.82,6.004,1.282,3.121,99.36526,-2.317,-1.053,31.22,0,109.5,13.38,-1.57,14.8
"2016-01-17 00:21:30",1291654,3.213,58.52,7.709,1.353,4.202,99.36015,-2.33,-1.072,31.17,0,109.5,13.39,-1.59,20.5
"2016-01-17 00:22:00",1291655,2.878,55.42,6.016,1.387,3.342,99.35619,-2.34,-1.134,31.19,0,109.5,13.39,-1.60,17.4
"2016-01-17 00:22:30",1291656,2.918,59.79,9.56,1.323,3.56,99.34966,-2.357,-1.087,31.27,0,109.5,13.39,-1.61,21.8
"2016-01-17 00:23:00",1291657,3.548,58.63,7.554,1.268,3.871,99.34738,-2.363,-1.117,31.26,0,109.5,13.39,-1.62,20.6
"2016-01-17 00:23:30",1291658,2.479,54.62,4.802,0.969,2.25,99.34568,-2.367,-1.138,31.28,0,109.5,13.39,-1.62,16.6
"2016-01-17 00:24:00",1291659,3.11,51.97,5.843,1.303,2.964,99.34595,-2.367,-1.156,31.32,0,109.5,13.39,-1.62,14.0
"2016-01-17 00:24:30",1291660,3.298,52.31,9.01,1.435,3.544,99.3468,-2.364,-1.123,31.41,0,109.6,13.39,-1.62,14.3
"2016-01-17 00:25:00",1291661,2.61,45.92,6.834,1.214,3.568,99.34708,-2.364,-1.071,31.52,0,109.5,13.39,-1.62,7.9
"2016-01-17 00:25:30",1291662,2.993,51.61,8.56,1.266,3.759,99.34905,-2.359,-1.129,31.48,0,109.5,13.39,-1.61,13.6
"2016-01-17 00:26:00",1291663,2.654,49.15,6.748,1.159,2.387,99.34933,-2.358,-1.151,31.46,0,109.5,13.39,-1.61,11.2
"2016-01-17 00:26:30",1291664,2.871,50.8,5.643,1.285,2.922,99.35215,-2.351,-1.156,31.48,0,109.5,13.39,-1.61,12.8
"2016-01-17 00:27:00",1291665,3.143,55.09,8,1.375,3.3,99.35384,-2.346,-1.137,31.57,0,109.5,13.39,-1.60,17.1
"2016-01-17 00:27:30",1291666,3.269,58.95,7.126,1.336,3.702,99.35439,-2.345,-1.157,31.65,0,109.5,13.39,-1.60,21.0
"2016-01-17 00:28:00",1291667,2.451,53.21,6.546,1.237,2.828,99.35439,-2.345,-1.151,31.84,0,109.5,13.39,-1.60,15.2
"2016-01-17 00:28:30",1291668,2.509,56.55,7.448,1.307,3.157,99.35439,-2.345,-1.113,31.93,0,109.5,13.39,-1.60,18.5
"2016-01-17 00:29:00",1291669,2.175,58.6,7.972,1.329,2.79,99.35439,-2.345,-1.204,31.97,0,109.5,13.39,-1.60,20.6
"2016-01-17 00:29:30",1291670,0.952,63.54,5.179,0.678,0.928,99.35439,-2.345,-1.252,32.67,0,109.5,13.39,-1.60,25.5
"2016-01-17 00:30:00",1291671,2.255,63.4,8.82,1.368,3.791,99.35439,-2.345,-1.161,32.92,0,109.5,13.39,-1.60,25.4
"2016-01-17 00:30:30",1291672,0.847,59.38,3.329,0.496,1.363,99.35439,-2.345,-1.16,32.87,0,109.5,13.4,-1.60,21.4
"2016-01-17 00:31:00",1291673,1.918,55.54,8.06,1.352,2.789,99.35439,-2.345,-1.178,32.77,0,109.5,13.39,-1.60,17.5
"2016-01-17 00:31:30",1291674,1.336,59.9,9.76,1.151,2.169,99.35439,-2.345,-1.138,32.82,0,109.5,13.4,-1.60,21.9
"2016-01-17 00:32:00",1291675,1.889,69.27,7.147,1.337,2.677,99.35439,-2.345,-1.194,32.76,0,109.5,13.39,-1.60,31.3
"2016-01-17 00:32:30",1291676,1.48,69.69,6.114,1.201,2.36,99.35439,-2.345,-1.215,32.79,0,109.5,13.39,-1.60,31.7
"2016-01-17 00:33:00",1291677,1.753,72.9,8.24,1.282,2.633,99.35411,-2.346,-1.228,32.84,0,109.5,13.39,-1.60,34.9
"2016-01-17 00:33:30",1291678,2.423,79.75,9.14,1.399,3.51,99.3527,-2.349,-1.115,33.01,0,109.5,13.4,-1.61,41.8
"2016-01-17 00:34:00",1291679,2.019,69.79,6.361,1.148,2.275,99.34421,-2.371,-1.203,32.97,0,109.5,13.4,-1.63,31.8
"2016-01-17 00:34:30",1291680,2.176,64.93,5.86,1.152,2.252,99.34051,-2.38,-1.185,32.86,0,109.5,13.4,-1.64,26.9
"2016-01-17 00:35:00",1291681,2.833,82.1,7.288,1.25,3.417,99.33571,-2.393,-1.12,32.81,0,109.5,13.4,-1.65,44.1
"2016-01-17 00:35:30",1291682,2.701,77.88,11.88,1.513,4.687,99.33796,-2.387,-1.136,32.66,0,109.5,13.4,-1.64,39.9
"2016-01-17 00:36:00",1291683,2.306,48.51,7.877,1.196,2.018,99.33398,-2.397,-1.277,32.32,0,109.5,13.4,-1.65,10.5
"2016-01-17 00:36:30",1291684,3.146,63.39,14.55,1.526,3.894,99.32632,-2.417,-1.136,32.32,0,109.5,13.4,-1.67,25.4
"2016-01-17 00:37:00",1291685,2.877,56.1,8.72,1.416,3.96,99.32745,-2.414,-1.147,32.26,0,109.5,13.4,-1.67,18.1
"2016-01-17 00:37:30",1291686,2.378,53.27,8.02,1.05,2.609,99.33223,-2.402,-1.205,32.18,0,109.5,13.4,-1.66,15.3
"2016-01-17 00:38:00",1291687,2.876,52.38,8.27,1.504,4.19,99.33336,-2.399,-1.187,32.18,0,109.5,13.4,-1.66,14.4
"2016-01-17 00:38:30",1291688,1.54,44.88,16.86,1.134,2.738,99.33504,-2.394,-1.238,32.08,0,109.5,13.4,-1.65,6.9
"2016-01-17 00:39:00",1291689,1.011,33.36,8.5,0.256,1.102,99.33672,-2.39,-1.351,31.95,0,109.5,13.44,-1.65,355.4
"2016-01-17 00:39:30",1291690,2.612,47.03,8.21,1.181,4,99.33842,-2.386,-1.179,32.16,0,109.5,13.4,-1.64,9.0
"2016-01-17 00:40:00",1291691,2.694,47.98,12.33,1.583,3.576,99.33842,-2.386,-1.166,32.17,0,109.5,13.4,-1.64,10.0
"2016-01-17 00:40:30",1291692,2.748,58.93,8.06,1.411,3.519,99.33785,-2.387,-1.239,32.15,0,109.5,13.4,-1.64,20.9
"2016-01-17 00:41:00",1291693,2.473,72.83,9.96,1.314,4.098,99.33897,-2.384,-1.163,32.27,0,109.5,13.4,-1.64,34.8
"2016-01-17 00:41:30",1291694,2.934,68.39,5.472,1.337,4.144,99.33839,-2.386,-1.183,32.28,0,109.5,13.4,-1.64,30.4
"2016-01-17 00:42:00",1291695,2.262,59.62,6.543,1.123,2.028,99.33725,-2.389,-1.3,32.2,0,109.5,13.4,-1.65,21.6
"2016-01-17 00:42:30",1291696,2.84,67.13,9.61,1.332,2.535,99.33752,-2.388,-1.25,32.21,0,109.5,13.4,-1.64,29.1
"2016-01-17 00:43:00",1291697,3.334,64.22,8.97,1.426,4.638,99.33298,-2.4,-1.153,32.49,0,109.5,13.4,-1.66,26.2
"2016-01-17 00:43:30",1291698,2.519,55.79,9.45,1.376,2.504,99.33213,-2.402,-1.257,32.51,0,109.5,13.4,-1.66,17.8
"2016-01-17 00:44:00",1291699,3.407,61.83,10.47,1.312,4.033,99.32931,-2.409,-1.146,32.76,0,109.5,13.4,-1.67,23.8
"2016-01-17 00:44:30",1291700,2.495,58.4,9.22,1.356,2.889,99.32958,-2.408,-1.187,32.86,0,109.5,13.4,-1.66,20.4
"2016-01-17 00:45:00",1291701,2.167,66.27,5.955,1.374,2.752,99.32873,-2.41,-1.261,33.19,0,109.5,13.4,-1.67,28.3
"2016-01-17 00:45:30",1291702,2.269,54.74,8.35,1.335,2.499,99.33721,-2.389,-1.252,32.85,0,109.5,13.4,-1.65,16.7
"2016-01-17 00:46:00",1291703,2.502,50.06,10.29,1.316,3.619,99.34826,-2.361,-1.177,33,0,109.5,13.4,-1.62,12.1
"2016-01-17 00:46:30",1291704,1.881,44.14,9.75,1.182,2.947,99.35277,-2.349,-1.168,33.38,0,109.5,13.4,-1.61,6.1
"2016-01-17 00:47:00",1291705,1.383,55.98,8.35,1.277,2.037,99.3539,-2.346,-1.263,33.44,0,109.5,13.4,-1.60,18.0
"2016-01-17 00:47:30",1291706,1.848,56.14,9.88,1.462,2.72,99.3539,-2.346,-1.276,33.16,0,109.5,13.4,-1.60,18.1
"2016-01-17 00:48:00",1291707,0.617,46.76,7.873,0.968,1.531,99.35417,-2.346,-1.267,33.21,0,109.5,13.4,-1.60,8.8
"2016-01-17 00:48:30",1291708,1.29,52.02,7.411,1.276,2.012,99.35417,-2.346,-1.255,33.37,0,109.5,13.4,-1.60,14.0
"2016-01-17 00:49:00",1291709,1.221,61.77,6.025,1.183,2.257,99.35389,-2.346,-1.213,32.83,0,109.5,13.4,-1.60,23.8
"2016-01-17 00:49:30",1291710,1.684,70.61,9.2,1.272,3.533,99.34653,-2.365,-1.209,32.5,0,109.5,13.4,-1.62,32.6
"2016-01-17 00:50:00",1291711,2.185,73.46,9.42,1.24,3.278,99.33605,-2.392,-1.254,32.27,0,109.5,13.4,-1.65,35.5
"2016-01-17 00:50:30",1291712,1.696,71.44,7.124,1.292,2.274,99.32869,-2.411,-1.272,31.96,0,109.5,13.4,-1.67,33.4
"2016-01-17 00:51:00",1291713,2.086,73.05,7.149,1.339,3.32,99.32161,-2.429,-1.164,31.92,0,109.5,13.4,-1.69,35.1
"2016-01-17 00:51:30",1291714,1.343,62.16,6.061,0.938,1.627,99.32019,-2.432,-1.381,31.6,0,109.5,13.4,-1.69,24.2
"2016-01-17 00:52:00",1291715,1.867,72.88,9.64,1.306,3.064,99.32019,-2.432,-1.277,31.66,0,109.5,13.4,-1.69,34.9
"2016-01-17 00:52:30",1291716,2.653,76.35,8.46,1.345,3.726,99.32019,-2.432,-1.242,31.71,0,109.5,13.4,-1.69,38.3
"2016-01-17 00:53:00",1291717,2.629,79.78,5.888,1.338,3.606,99.32019,-2.432,-1.251,31.62,0,109.5,13.41,-1.69,41.8
"2016-01-17 00:53:30",1291718,2.328,82.7,6.462,1.373,3.549,99.31622,-2.442,-1.231,31.59,0,109.5,13.42,-1.70,44.7
"2016-01-17 00:54:00",1291719,1.74,89.3,8.79,1.353,3.664,99.30545,-2.47,-1.192,31.72,0,109.5,13.42,-1.73,51.3
"2016-01-17 00:54:30",1291720,0.555,71.9,10.71,1.121,2.281,99.30801,-2.463,-1.326,32.39,0,109.5,13.42,-1.72,33.9
"2016-01-17 00:55:00",1291721,-0.052,73.63,19.75,0.116,0.854,99.31339,-2.45,-1.423,32.88,0,109.5,13.46,-1.71,35.6
"2016-01-17 00:55:30",1291722,1.098,86.8,10.11,1.166,2.25,99.31282,-2.451,-1.28,34.02,0,109.5,13.42,-1.71,48.8
"2016-01-17 00:56:00",1291723,2.125,71,8.99,1.418,2.908,99.30828,-2.463,-1.271,34.23,0,109.5,13.42,-1.72,33.0
"2016-01-17 00:56:30",1291724,1.924,67.4,5.499,1.156,2.17,99.30347,-2.475,-1.375,33.93,0,109.5,13.42,-1.73,29.4
"2016-01-17 00:57:00",1291725,2.804,55.31,16.75,1.328,3.613,99.29667,-2.492,-1.25,33.59,0,109.5,13.42,-1.75,17.3
"2016-01-17 00:57:30",1291726,2.531,41.37,32.61,1.463,3.842,99.2879,-2.514,-1.279,33.15,0,109.5,13.42,-1.77,3.4
"2016-01-17 00:58:00",1291727,2.202,329.1,12.92,1.226,2.259,99.28873,-2.512,-1.293,33.05,0,109.5,13.42,-1.77,291.1
"2016-01-17 00:58:30",1291728,2.164,344.2,17.83,1.015,1.933,99.28817,-2.514,-1.404,33.17,0,109.5,13.42,-1.77,306.2
"2016-01-17 00:59:00",1291729,1.996,4.001,14.73,1.299,2.722,99.29099,-2.507,-1.26,33.63,0,109.5,13.42,-1.76,326.0
"2016-01-17 00:59:30",1291730,2.175,14.66,23.1,1.496,3.969,99.29295,-2.502,-1.275,33.62,0,109.5,13.42,-1.76,336.7
"2016-01-17 01:00:00",1291731,2.718,318.4,11.17,1.682,3.944,99.29801,-2.489,-1.273,33.41,0,109.5,13.42,-1.75,280.4
"2016-01-17 01:00:30",1291732,2.764,346.9,19.44,1.384,3.423,99.29546,-2.495,-1.364,33.57,0,109.5,13.42,-1.75,308.9
"2016-01-17 01:01:00",1291733,2.481,336.4,14.97,1.617,3.137,99.28525,-2.521,-1.284,33.62,0,109.5,13.42,-1.78,298.4
"2016-01-17 01:01:30",1291734,2.159,343,15.05,0.889,2.341,99.28467,-2.523,-1.386,33.5,0,109.5,13.42,-1.78,305.0
"2016-01-17 01:02:00",1291735,3.272,359.2,15.5,1.456,4.185,99.28297,-2.527,-1.29,33.78,0,109.4,13.42,-1.78,321.2
"2016-01-17 01:02:30",1291736,2.195,4.366,18.2,1.391,3.788,99.28493,-2.522,-1.34,33.67,0,109.5,13.42,-1.78,326.4
"2016-01-17 01:03:00",1291737,3.246,347.4,8.5,1.507,4.018,99.28719,-2.516,-1.288,33.82,0,109.5,13.42,-1.77,309.4
"2016-01-17 01:03:30",1291738,1.783,315.3,15.21,1.196,3.364,99.3022,-2.478,-1.29,34.18,0,109.5,13.42,-1.73,277.3
"2016-01-17 01:04:00",1291739,2.434,320.4,14,0.938,3.354,99.31693,-2.441,-1.336,34.33,0,109.5,13.42,-1.70,282.4
"2016-01-17 01:04:30",1291740,2.306,302,13.17,1.198,2.808,99.32287,-2.425,-1.355,34.28,0,109.5,13.42,-1.68,264.0
"2016-01-17 01:05:00",1291741,2.234,277.8,8.83,1.471,3.87,99.32798,-2.412,-1.305,34.24,0,109.5,13.42,-1.67,239.8
"2016-01-17 01:05:30",1291742,1.723,312.3,42.39,1.236,3.846,99.33904,-2.384,-1.195,34.17,0,109.5,13.42,-1.64,274.3
"2016-01-17 01:06:00",1291743,3.351,340,13.4,1.331,3.531,99.34045,-2.381,-1.308,33.93,0,109.5,13.41,-1.64,302.0
"2016-01-17 01:06:30",1291744,2.807,325.6,14.66,1.637,2.557,99.34185,-2.377,-1.316,33.8,0,109.5,13.42,-1.63,287.6
"2016-01-17 01:07:00",1291745,4.48,314.8,7.675,1.473,3.664,99.34129,-2.378,-1.195,33.76,0,109.5,13.42,-1.63,276.8
"2016-01-17 01:07:30",1291746,3.125,296,11.38,1.404,3.512,99.34017,-2.381,-1.29,33.59,0,109.5,13.42,-1.64,258.0
"2016-01-17 01:08:00",1291747,3.439,296.9,12.6,1.381,5.22,99.34185,-2.377,-1.166,33.74,0,109.5,13.42,-1.63,258.9
"2016-01-17 01:08:30",1291748,3.05,285.4,15.88,1.406,4.701,99.34496,-2.369,-1.2,33.66,0,109.4,13.42,-1.63,247.4
"2016-01-17 01:09:00",1291749,1.634,279.6,16.28,1.223,2.6,99.36396,-2.321,-1.276,33.59,0,109.5,13.42,-1.58,241.6
"2016-01-17 01:09:30",1291750,1.689,272.9,14.8,1.071,2.53,99.37839,-2.284,-1.244,33.55,0,109.5,13.42,-1.54,234.9
"2016-01-17 01:10:00",1291751,2.475,284,8.93,1.265,2.731,99.39369,-2.245,-1.216,33.55,0,109.5,13.42,-1.50,246.0
"2016-01-17 01:10:30",1291752,2.05,287.7,9.22,1.495,3.77,99.41097,-2.201,-1.109,33.6,0,109.5,13.42,-1.46,249.7
"2016-01-17 01:11:00",1291753,1.433,286.7,23.79,1.421,3.873,99.41435,-2.192,-1.124,33.54,0,109.5,13.42,-1.45,248.7
"2016-01-17 01:11:30",1291754,2.231,288.2,12.21,1.402,3.835,99.41351,-2.194,-1.091,33.44,0,109.5,13.42,-1.45,250.2
"2016-01-17 01:12:00",1291755,2.019,359.4,49.33,1.536,2.461,99.41689,-2.186,-1.16,33.62,0,109.5,13.42,-1.44,321.4
"2016-01-17 01:12:30",1291756,1.458,338.9,50.2,0.889,1.005,99.41746,-2.184,-1.241,33.51,0,109.5,13.47,-1.44,300.9
"2016-01-17 01:13:00",1291757,2.52,332.9,19.5,1.659,3.585,99.41549,-2.189,-1.052,33.72,0,109.5,13.42,-1.45,294.9
"2016-01-17 01:13:30",1291758,3.818,334.4,11.27,1.383,3.901,99.41746,-2.184,-1.069,34.15,0,109.4,13.43,-1.44,296.4
"2016-01-17 01:14:00",1291759,3.561,325.9,10.91,1.394,4.345,99.41717,-2.185,-1.015,34.8,0,109.5,13.43,-1.44,287.9
"2016-01-17 01:14:30",1291760,3.646,327.6,10.12,1.326,4.912,99.41717,-2.185,-0.978,35.11,0,109.5,13.43,-1.44,289.6
"2016-01-17 01:15:00",1291761,3.48,317,8.19,1.327,4.282,99.41718,-2.185,-1.012,35.32,0,109.4,13.43,-1.44,279.0
"2016-01-17 01:15:30",1291762,2.653,343.1,12.46,1.155,2.836,99.41774,-2.184,-1.179,35.2,0,109.5,13.42,-1.44,305.1
"2016-01-17 01:16:00",1291763,2.13,338.9,10.45,1.299,3.845,99.42227,-2.172,-0.988,35.32,0,109.4,13.42,-1.43,300.9
"2016-01-17 01:16:30",1291764,1.015,353.1,21.49,0.929,2.292,99.44126,-2.124,-1.103,35.26,0,109.4,13.42,-1.38,315.1
"2016-01-17 01:17:00",1291765,1.94,336.2,18.85,1.481,4.026,99.45145,-2.098,-0.967,35.31,0,109.5,13.43,-1.35,298.2
"2016-01-17 01:17:30",1291766,1.969,315,9.19,1.276,3.148,99.46534,-2.062,-0.964,35.21,0,109.5,13.42,-1.32,277.0
"2016-01-17 01:18:00",1291767,1.954,293.2,15.94,1.578,4.658,99.46619,-2.06,-0.968,34.98,0,109.4,13.42,-1.32,255.2
"2016-01-17 01:18:30",1291768,0.065,273.7,12.86,0.186,2.048,99.48489,-2.013,-1.082,34.58,0,109.4,13.47,-1.27,235.7
"2016-01-17 01:19:00",1291769,-0.084,274.4,34.4,0.195,1.483,99.48999,-2,-1.085,34.57,0,109.5,13.47,-1.25,236.4
"2016-01-17 01:19:30",1291770,0.186,313.3,21.89,0.82,1.579,99.5016,-1.97,-0.982,34.54,0,109.5,13.43,-1.22,275.3
"2016-01-17 01:20:00",1291771,1.8,0.137,19.08,1.455,3.411,99.50217,-1.968,-0.936,34.47,0,109.5,13.43,-1.22,322.1
"2016-01-17 01:20:30",1291772,0.987,323.4,15.29,0.81,1.436,99.50302,-1.966,-1,34.29,0,109.5,13.43,-1.22,285.4
"2016-01-17 01:21:00",1291773,2.656,320.2,9.6,1.432,3.371,99.49991,-1.974,-0.836,34.41,0,109.5,13.42,-1.23,282.2
"2016-01-17 01:21:30",1291774,2.735,328.2,11.67,1.334,4.436,99.50302,-1.966,-0.788,34.4,0,109.4,13.42,-1.22,290.2
"2016-01-17 01:22:00",1291775,3.017,332.7,12.43,1.251,3.512,99.50273,-1.967,-0.907,34.08,0,109.4,13.42,-1.22,294.7
"2016-01-17 01:22:30",1291776,2.418,329.2,6.635,1.141,2.608,99.50074,-1.972,-0.944,33.89,0,109.4,13.42,-1.23,291.2
"2016-01-17 01:23:00",1291777,2.378,320.5,8.55,1.266,2.885,99.49168,-1.995,-0.842,33.89,0,109.5,13.42,-1.25,282.5
"2016-01-17 01:23:30",1291778,2.455,325.8,4.826,1.365,3.093,99.4894,-2.001,-0.966,33.68,0,109.4,13.42,-1.26,287.8
"2016-01-17 01:24:00",1291779,2.793,339.2,11.59,1.413,3.519,99.48912,-2.002,-0.872,33.74,0,109.4,13.42,-1.26,301.2
"2016-01-17 01:24:30",1291780,2.608,333.9,8.02,1.366,3.564,99.48856,-2.003,-0.839,33.7,0,109.5,13.42,-1.26,295.9
"2016-01-17 01:25:00",1291781,3.296,333.1,8.94,1.501,4.208,99.48968,-2,-0.84,33.69,0,109.4,13.42,-1.26,295.1
"2016-01-17 01:25:30",1291782,2.775,328.9,8.06,1.135,2.329,99.48968,-2,-0.98,33.89,0,109.4,13.42,-1.26,290.9
"2016-01-17 01:26:00",1291783,3.109,320.4,17.69,1.435,4.39,99.4894,-2.001,-0.829,34.32,0,109.4,13.43,-1.26,282.4
"2016-01-17 01:26:30",1291784,3.151,282.3,9.53,1.157,3.302,99.48459,-2.013,-0.89,34.56,0,109.4,13.43,-1.27,244.3
"2016-01-17 01:27:00",1291785,2.87,319.9,9.75,1.241,4.375,99.4809,-2.023,-0.827,34.88,0,109.4,13.43,-1.28,281.9
"2016-01-17 01:27:30",1291786,3.347,324.8,8.08,1.312,4.312,99.48061,-2.023,-0.82,34.91,0,109.4,13.43,-1.28,286.8
"2016-01-17 01:28:00",1291787,2.172,345.8,14.31,1.447,2.607,99.4809,-2.023,-0.897,34.77,0,109.4,13.43,-1.28,307.8
"2016-01-17 01:28:30",1291788,3.367,318.1,12.61,1.713,2.846,99.47778,-2.031,-0.928,34.72,0,109.4,13.43,-1.29,280.1
"2016-01-17 01:29:00",1291789,3.953,324.2,9.25,1.353,3.248,99.47495,-2.038,-0.905,35.06,0,109.4,13.43,-1.29,286.2
"2016-01-17 01:29:30",1291790,4.138,326.3,8.48,1.35,3.794,99.47381,-2.041,-0.835,35.24,0,109.4,13.43,-1.30,288.3
"2016-01-17 01:30:00",1291791,5.056,325.2,7.354,1.324,5.338,99.47325,-2.042,-0.781,35.55,0,109.5,13.43,-1.30,287.2
"2016-01-17 01:30:30",1291792,4.521,323.3,6.661,1.373,4.604,99.47353,-2.041,-0.79,35.66,0,109.4,13.43,-1.30,285.3
"2016-01-17 01:31:00",1291793,5.165,327.4,7.812,1.362,5.184,99.47353,-2.041,-0.819,35.58,0,109.4,13.43,-1.30,289.4
"2016-01-17 01:31:30",1291794,4.258,323.2,8.74,1.252,3.323,99.4758,-2.036,-0.907,35.21,0,109.5,13.43,-1.29,285.2
"2016-01-17 01:32:00",1291795,4.297,331.5,5.969,1.205,4.095,99.47976,-2.026,-0.848,35.26,0,109.4,13.43,-1.28,293.5
"2016-01-17 01:32:30",1291796,4.127,324,10.81,1.409,4.455,99.48402,-2.015,-0.822,35.33,0,109.4,13.43,-1.27,286.0
"2016-01-17 01:33:00",1291797,4.622,337.7,7.904,1.312,5.012,99.48599,-2.01,-0.788,35.44,0,109.4,13.43,-1.26,299.7
"2016-01-17 01:33:30",1291798,4.411,331.9,10.64,1.516,4.089,99.48911,-2.002,-0.859,35.28,0,109.4,13.43,-1.26,293.9
"2016-01-17 01:34:00",1291799,3.642,328.3,6.458,1.315,3.881,99.48997,-2,-0.857,35.34,0,109.4,13.43,-1.25,290.3
"2016-01-17 01:34:30",1291800,3.89,326.6,9.19,1.319,3.919,99.48997,-2,-0.79,35.5,0,109.5,13.43,-1.25,288.6
"2016-01-17 01:35:00",1291801,3.814,327.9,6.434,1.35,3.243,99.48997,-2,-0.905,35.26,0,109.5,13.43,-1.25,289.9
"2016-01-17 01:35:30",1291802,4.058,319.7,6.498,1.312,4.308,99.48997,-2,-0.766,35.41,0,109.4,13.43,-1.25,281.7
"2016-01-17 01:36:00",1291803,4.193,326.9,8.44,1.303,5.324,99.48997,-2,-0.75,35.49,0,109.4,13.43,-1.25,288.9
"2016-01-17 01:36:30",1291804,3.623,332.2,9.14,1.284,4.329,99.48997,-2,-0.788,35.31,0,109.4,13.43,-1.25,294.2
"2016-01-17 01:37:00",1291805,3.17,339.3,7.458,1.33,4.241,99.49025,-1.999,-0.793,35.15,0,109.4,13.43,-1.25,301.3
"2016-01-17 01:37:30",1291806,2.64,337.7,8.06,1.247,2.867,99.49081,-1.997,-0.874,34.98,0,109.4,13.43,-1.25,299.7
"2016-01-17 01:38:00",1291807,2.553,341.5,10.99,1.366,2.899,99.49138,-1.996,-0.882,34.84,0,109.5,13.42,-1.25,303.5
"2016-01-17 01:38:30",1291808,2.949,334.8,10.14,1.324,4.041,99.49364,-1.99,-0.723,34.88,0,109.4,13.42,-1.25,296.8
"2016-01-17 01:39:00",1291809,3.652,338.9,7.012,1.282,4.326,99.49535,-1.986,-0.801,34.78,0,109.4,13.42,-1.24,300.9
"2016-01-17 01:39:30",1291810,2.55,343.5,7.045,1.33,3.607,99.49535,-1.986,-0.832,34.67,0,109.4,13.42,-1.24,305.5
"2016-01-17 01:40:00",1291811,1.398,359.4,13.01,1.246,2.996,99.49648,-1.983,-0.783,34.66,0,109.4,13.42,-1.24,321.4
"2016-01-17 01:40:30",1291812,1.054,18.24,10.2,1.323,2.24,99.49223,-1.994,-0.872,34.55,0,109.5,13.42,-1.25,340.2
"2016-01-17 01:41:00",1291813,0.005,12.28,7.751,0.17,0.813,99.4911,-1.997,-0.956,34.4,0,109.5,13.47,-1.25,334.3
"2016-01-17 01:41:30",1291814,-0.034,28.53,18.3,0.258,1.175,99.4928,-1.992,-0.893,34.45,0,109.5,13.47,-1.25,350.5
"2016-01-17 01:42:00",1291815,1.851,356.9,12.27,1.258,3.7,99.49931,-1.976,-0.817,34.49,0,109.5,13.42,-1.23,318.9
"2016-01-17 01:42:30",1291816,1.349,344.4,12.89,1.252,2.54,99.50158,-1.97,-0.77,34.5,0,109.5,13.43,-1.22,306.4
"2016-01-17 01:43:00",1291817,1.317,336,7.074,1.351,3.196,99.49648,-1.983,-0.858,34.41,0,109.5,13.43,-1.24,298.0
"2016-01-17 01:43:30",1291818,0.662,355.5,17.46,1.137,2.207,99.49167,-1.995,-0.893,34.37,0,109.5,13.43,-1.25,317.5
"2016-01-17 01:44:00",1291819,0.89,25.56,26.19,1.249,2.288,99.48997,-2,-0.81,34.47,0,109.5,13.43,-1.25,347.6
"2016-01-17 01:44:30",1291820,0.575,20.04,15.47,1.252,2.095,99.48997,-2,-0.892,34.36,0,109.5,13.44,-1.25,342.0
"2016-01-17 01:45:00",1291821,0.195,15.43,10.32,0.185,0.329,99.48997,-2,-0.952,34.38,0,109.5,13.48,-1.25,337.4
"2016-01-17 01:45:30",1291822,0.298,19.47,6.194,0.16,0.553,99.48997,-2,-0.968,34.4,0,109.5,13.48,-1.25,341.5
"2016-01-17 01:46:00",1291823,1.201,36.24,12.26,1.285,2.968,99.48997,-2,-0.808,34.6,0,109.4,13.44,-1.25,358.2